Location: Bellflower
(33.8817°N, 118.1170°W)
Time: 13:20:53
(UTC+00:00)

Cosmos 1515 Rocket - Pass Details

Date: 23 November 2020
Orbit: 605 x 631 km, 82.5° (Epoch: 22 January)

Event Time Altitude Azimuth Distance (km) Brightness Sun altitude
Rises 13:48:11 0° 356° (N) 2,922 6.8 -9.5°
Reaches altitude 10° 13:50:26 10° 359° (N) 2,013 6.0 -9.0°
Maximum altitude 13:54:53 67° 82° (E) 682 4.0 -8.1°
Drops below altitude 10° 13:59:18 10° 166° (SSE) 2,002 6.7 -7.3°
Sets 14:01:32 0° 169° (S) 2,904 7.5 -6.8°
